Weather History for Peru, IN

Change the Weather History Date:

Sunday, February 3, 2013

  Actual Average Record
Temperature  
Mean Temperature 16 °F -  
Max Temperature 21 °F 33 °F 53 °F (2003)
Min Temperature 10 °F 21 °F 1 °F (2007)
Degree Days  
Heating Degree Days 50    
Moisture  
Dew Point 12 °F    
Average Humidity 86    
Maximum Humidity 93    
Minimum Humidity 78    
Precipitation  
Precipitation 0.00 in - - ()
Sea Level Pressure  
Sea Level Pressure 30.03 in    
Wind  
Wind Speed 10 mph (West)    
Max Wind Speed 18 mph    
Max Gust Speed -    
Visibility 9 miles    
Events Snow    
Averages and records for this station are not official NWS values.
T = Trace of Precipitation, MM = Missing Value Source: NWS Daily Summary

Daily Weather History Graph

Daily Weather History Graph

Search for Another Location

Airport:

Trip Planner

Search our weather history database for the weather conditions in past years. The results will help you decide how hot, cold, wet, or windy it might be!

Date:

Astronomy

Feb. 03, 2013 Rise Set
Actual Time 7:52 AM EST 6:05 PM EST
Civil Twilight 7:23 AM EST 6:34 PM EST
Nautical Twilight 6:50 AM EST 7:06 PM EST
Astronomical Twilight 6:18 AM EST 7:38 PM EST
Moon 1:19 AM EST (2/3) 11:41 AM EST (2/3)
Length of Visible Light 11h 10m
Length of Day
10h 13m
Waning Gibbous, 49% of the Moon is Illuminated
Feb 3
Waning Gibbous
Feb 10
New
Feb 17
First Quarter
Feb 25
Full
Mar 4
Last Quarter

Hourly Weather History & Observations

Time (EST) Temp. Windchill Dew Point Humidity Pressure Visibility Wind Dir Wind Speed Gust Speed Precip Events Conditions
12:08 AM 15.8 °F 3.4 °F 14.0 °F 93% 30.06 in 8.0 mi West 10.4 mph - N/A Snow Light Snow
12:12 AM 15.8 °F 2.7 °F 14.0 °F 93% 30.06 in 8.0 mi West 11.5 mph - N/A Snow Light Snow
12:17 AM 15.8 °F 2.7 °F 14.0 °F 93% 30.06 in 10.0 mi West 11.5 mph - N/A Snow Light Snow
12:20 AM 15.8 °F 3.4 °F 14.0 °F 93% 30.06 in 10.0 mi West 10.4 mph - N/A Snow Light Snow
12:22 AM 15.8 °F 3.4 °F 14.0 °F 93% 30.05 in 10.0 mi West 10.4 mph - N/A Snow Light Snow
12:25 AM 15.8 °F 3.4 °F 14.0 °F 93% 30.06 in 10.0 mi West 10.4 mph - N/A Snow Light Snow
12:39 AM 15.8 °F 4.2 °F 14.0 °F 93% 30.05 in 10.0 mi West 9.2 mph - N/A Snow Light Snow
12:42 AM 15.8 °F 4.2 °F 14.0 °F 93% 30.05 in 10.0 mi West 9.2 mph - N/A Snow Light Snow
12:48 AM 15.8 °F 4.2 °F 12.2 °F 86% 30.05 in 10.0 mi West 9.2 mph - N/A Snow Light Snow
12:54 AM 15.8 °F 5.1 °F 12.2 °F 86% 30.04 in 10.0 mi West 8.1 mph - N/A Snow Light Snow
1:14 AM 14.0 °F 2.9 °F 12.2 °F 93% 30.04 in 10.0 mi West 8.1 mph - N/A Snow Light Snow
1:15 AM 14.0 °F 2.9 °F 12.2 °F 93% 30.04 in 10.0 mi West 8.1 mph - N/A   Overcast
1:55 AM 13.6 °F 0.7 °F 10.9 °F 89% 30.03 in 10.0 mi West 10.4 mph - 0.00 in   Overcast
1:56 AM 14.0 °F 1.2 °F 10.4 °F 86% 30.03 in 10.0 mi West 10.4 mph - N/A Snow Light Snow
1:58 AM 14.0 °F 0.5 °F 10.4 °F 86% 30.03 in 10.0 mi West 11.5 mph - N/A   Overcast
2:02 AM 14.0 °F 2.0 °F 10.4 °F 86% 30.03 in 10.0 mi West 9.2 mph - N/A Snow Light Snow
2:08 AM 14.0 °F 2.0 °F 10.4 °F 86% 30.03 in 10.0 mi West 9.2 mph - N/A Snow Light Snow
2:21 AM 14.0 °F 2.0 °F 10.4 °F 86% 30.02 in 10.0 mi West 9.2 mph - N/A Snow Light Snow
2:55 AM 12.6 °F -0.6 °F 9.5 °F 88% 30.02 in 10.0 mi West 10.4 mph - 0.00 in   Overcast
3:01 AM 12.2 °F -1.0 °F 8.6 °F 85% 30.03 in 10.0 mi West 10.4 mph - N/A   Overcast
3:16 AM 12.2 °F -0.2 °F 8.6 °F 85% 30.03 in 10.0 mi West 9.2 mph - N/A   Overcast
3:37 AM 12.2 °F -0.2 °F 8.6 °F 85% 30.01 in 10.0 mi West 9.2 mph - N/A Snow Light Snow
3:55 AM 11.8 °F 1.3 °F 8.4 °F 86% 30.00 in 10.0 mi West 6.9 mph - 0.00 in Snow Light Snow
4:05 AM 12.2 °F 0.7 °F 8.6 °F 85% 30.00 in 10.0 mi West 8.1 mph - N/A   Overcast
4:12 AM 12.2 °F -1.0 °F 8.6 °F 85% 30.01 in 10.0 mi West 10.4 mph - N/A Snow Light Snow
4:25 AM 12.2 °F 0.7 °F 6.8 °F 79% 29.99 in 10.0 mi WNW 8.1 mph - N/A   Overcast
4:46 AM 10.4 °F -0.4 °F 6.8 °F 85% 29.99 in 10.0 mi West 6.9 mph - N/A   Mostly Cloudy
4:55 AM 10.9 °F 0.2 °F 6.6 °F 83% 29.99 in 10.0 mi West 6.9 mph - 0.00 in   Mostly Cloudy
5:55 AM 10.6 °F 1.0 °F 5.4 °F 79% 29.98 in 10.0 mi West 5.8 mph - N/A   Overcast
6:55 AM 10.9 °F -0.8 °F 7.0 °F 84% 29.98 in 10.0 mi West 8.1 mph - N/A   Overcast
7:55 AM 11.5 °F -1.9 °F 7.0 °F 82% 30.01 in 10.0 mi West 10.4 mph - N/A   Overcast
8:16 AM 12.2 °F -1.8 °F 6.8 °F 79% 30.01 in 10.0 mi West 11.5 mph - N/A Snow Light Snow
8:55 AM 12.4 °F 0.0 °F 8.4 °F 84% 30.01 in 10.0 mi West 9.2 mph - 0.00 in Snow Light Snow
9:55 AM 13.5 °F 1.3 °F 9.9 °F 86% 30.02 in 8.0 mi West 9.2 mph - 0.00 in Snow Light Snow
10:29 AM 14.0 °F 2.0 °F 10.4 °F 86% 30.01 in 10.0 mi West 9.2 mph - N/A Snow Light Snow
10:55 AM 14.9 °F 2.3 °F 11.1 °F 85% 30.02 in 9.0 mi West 10.4 mph - 0.00 in Snow Light Snow
11:55 AM 16.5 °F 4.3 °F 12.4 °F 84% 30.02 in 10.0 mi West 10.4 mph - 0.00 in Snow Light Snow
12:55 PM 18.7 °F 6.3 °F 14.5 °F 84% 30.01 in 9.0 mi West 11.5 mph - 0.00 in Snow Light Snow
1:38 PM 19.4 °F 6.0 °F 15.8 °F 86% 30.02 in 10.0 mi West 13.8 mph - N/A   Overcast
1:55 PM 20.1 °F 6.9 °F 15.6 °F 83% 30.02 in 10.0 mi West 13.8 mph - 0.00 in Snow Light Snow
2:24 PM 21.2 °F 8.3 °F 17.6 °F 86% 30.02 in 2.5 mi West 13.8 mph - N/A Snow Light Snow
2:49 PM 21.2 °F 8.3 °F 17.6 °F 86% 30.03 in 1.2 mi West 13.8 mph - N/A Snow Light Snow
2:55 PM 21.2 °F 8.9 °F 17.4 °F 85% 30.03 in 1.2 mi WNW 12.7 mph - 0.00 in Snow Light Snow
2:58 PM 21.2 °F 9.5 °F 17.6 °F 86% 30.03 in 4.0 mi WNW 11.5 mph - N/A Snow Light Snow
3:05 PM 21.2 °F 9.5 °F 17.6 °F 86% 29.98 in 2.0 mi West 11.5 mph - N/A Snow Light Snow
3:37 PM 21.2 °F 7.3 °F 17.6 °F 86% 30.04 in 10.0 mi WNW 16.1 mph - N/A Snow Light Snow
3:42 PM 21.2 °F 6.4 °F 17.6 °F 86% 30.04 in 10.0 mi WNW 18.4 mph - N/A Snow Light Snow
3:55 PM 21.9 °F 7.8 °F 16.0 °F 78% 30.04 in 10.0 mi West 17.3 mph - 0.00 in Snow Light Snow
4:19 PM 21.2 °F 6.8 °F 15.8 °F 80% 30.06 in 10.0 mi West 17.3 mph - N/A   Mostly Cloudy
4:46 PM 21.2 °F 6.8 °F 15.8 °F 80% 30.06 in 10.0 mi WNW 17.3 mph - N/A Snow Light Snow
4:55 PM 21.7 °F 8.0 °F 16.2 °F 79% 30.06 in 10.0 mi WNW 16.1 mph - 0.00 in Snow Light Snow
5:04 PM 21.2 °F 6.8 °F 15.8 °F 80% 30.06 in 10.0 mi WNW 17.3 mph - N/A   Mostly Cloudy
5:55 PM 19.9 °F 7.9 °F 14.7 °F 80% 30.07 in 10.0 mi West 11.5 mph - 0.00 in   Scattered Clouds
6:55 PM 18.0 °F 6.1 °F 13.3 °F 82% 30.09 in 10.0 mi West 10.4 mph - N/A   Clear
7:55 PM 16.9 °F 5.5 °F 13.1 °F 85% 30.09 in 10.0 mi WSW 9.2 mph - N/A   Clear
8:55 PM 17.2 °F 6.8 °F 13.5 °F 85% 30.09 in 10.0 mi WSW 8.1 mph - N/A   Mostly Cloudy
9:55 PM 17.4 °F 9.1 °F 13.8 °F 86% 30.09 in 10.0 mi SW 5.8 mph - N/A   Overcast
10:55 PM 14.9 °F 6.1 °F 12.2 °F 89% 30.10 in 10.0 mi SW 5.8 mph - N/A   Overcast
11:55 PM 20.3 °F 10.6 °F 15.3 °F 81% 30.09 in 10.0 mi West 8.1 mph - N/A   Mostly Cloudy